SCP
-0 -0 0 0 0 0 -0 -0 0 -0 0 0 0 0 0 0 0 0 0 0 0 0 0 0 -0 -0 -0 0 0 0 0 0 0 0 0 0 0 0 0 0 0 0 -0 -0 -0 -0 -0 -0 -0
0 0 0 0 0 0 0 0 0 0 0 0 0 0 0 0 0 0 0 0 0 0 0 0 0 0 -0 0 0 0 0 0 0 0 0 0 0 0 0 0 0 0 -0 -0 -0 -0 -0 -0 -0
0 0 0 0 0 0 0 0 0 0 0 0 0 0 0 0 0 0 0 0 0 0 0 0 0 0 0 0 0 0 0 0 0 0 0 0 0 0 0 0 0 0 0 -0 -0 -0 -0 -0 -0
0 0 0 0 0 0 0 0 0 0 0 0 0 0 0 0 0 0 0 0 0 0 0 0 0 0 0 0 0 0 0 0 0 0 0 0 0 0 0 0 0 0 0 0 0 0 0 0 0
0 0 0 0 0 0 -0 0 0 0 0 0 0 0 0 0 0 0 0 0 0 0 0 0 0 0 0 0 0 0 0 0 0 0 0 0 0 0 0 0 0 0 0 0 0 0 0 0 0
0 0 0 0 0 0 0 0 -0 -0 0 0 0 0 0 0 0 0 0 0 0 0 0 0 0 0 0 0 0 0 0 0 0 0 0 0 0 0 0 0 0 0 0 0 0 0 0 0 0
0 0 0 0 0 0 0 0 0 0 0 0 0 0 0 0 0 0 0 0 0 0 0 0 0 0 0 0 0 0 0 0 0 0 0 0 0 0 0 0 0 0 0 0 0 0 0 0 0
0 0 0 0 0 0 0 0 0 0 0 0 0 0 0 0 0 0 0 0 0 0 0 0 0 0 0 0 0 0 0 0 0 0 0 0 0 0 0 0 0 0 0 0 0 0 0 0 0
0 0 0 0 0 0 0 0 0 0 0 0 0 0 0 0 0 0 0 1 1 1 0 0 0 0 0 0 0 0 0 0 0 0 0 0 0 0 0 0 0 0 0 0 0 0 0 0 0
0 0 0 0 0 0 0 0 0 0 0 0 0 0 0 1 0 0 0 0 1 1 0 0 0 0 0 0 0 0 0 0 0 0 0 0 0 0 0 0 0 0 0 0 0 -0 0 0 0
0 0 0 0 0 0 0 0 0 0 0 0 0 0 0 0 1 0 -0 0 1 1 0 0 0 0 0 0 0 0 0 0 0 0 0 0 0 0 0 0 0 0 0 0 0 0 0 0 0
0 0 0 0 0 0 0 0 0 0 0 0 0 0 -0 0 0 1 0 0 0 1 1 0 0 0 0 0 0 0 0 0 0 0 0 0 0 0 0 0 0 0 0 0 0 0 0 0 0
0 0 0 0 0 0 0 0 0 0 0 0 0 0 0 0 0 0 1 0 0 1 1 1 0 0 0 0 0 0 0 0 0 0 0 0 0 0 0 0 0 0 0 0 0 0 0 0 0
0 0 0 0 0 0 0 0 0 0 0 0 0 0 0 0 0 0 1 1 0 1 1 1 0 0 0 0 0 0 0 0 0 0 0 0 0 0 0 0 0 0 0 0 0 0 0 0 0
0 0 0 0 0 0 0 0 0 0 0 0 0 0 0 0 0 0 0 0 1 1 1 0 0 0 0 0 0 0 0 0 0 0 0 0 0 0 0 0 0 0 0 0 0 0 0 0 0
0 0 0 0 0 0 0 0 0 0 0 0 0 0 0 0 0 0 0 0 0 0 1 0 0 0 0 0 0 0 0 0 0 0 0 0 0 0 0 0 0 0 0 0 0 0 0 0 0
0 0 0 0 0 0 0 0 0 0 0 0 0 0 0 -0 0 0 0 0 0 0 0 0 0 0 0 0 0 0 0 0 0 0 0 0 0 0 0 0 0 0 0 0 0 0 0 0 0
0 0 0 0 0 0 0 0 0 0 0 0 0 -0 -0 0 0 -0 0 0 0 0 0 0 0 0 0 0 0 0 0 0 0 0 0 0 0 0 0 0 0 0 0 0 0 0 0 0 0
0 0 0 0 0 0 0 0 0 0 0 0 -0 0 0 -0 0 -0 -0 0 0 0 0 0 0 0 0 0 0 0 0 0 0 0 0 0 0 0 0 0 0 0 0 0 0 0 0 0 0
0 0 0 0 0 0 0 0 0 0 0 0 0 0 0 0 0 0 0 0 0 0 0 0 0 0 0 0 0 0 0 0 0 0 0 0 0 0 0 0 0 0 0 0 0 0 0 0 0
0 0 0 0 0 0 0 0 0 0 0 0 0 0 0 -0 -0 0 0 0 0 0 0 0 0 0 0 0 0 0 0 0 0 0 0 0 0 0 0 0 0 0 0 0 0 0 0 0 0
0 0 0 0 0 0 0 0 0 0 0 0 0 0 0 -0 -0 0 0 0 0 0 0 0 0 0 0 0 0 0 0 0 0 0 0 0 0 0 0 0 0 0 0 0 0 0 0 0 0
0 0 0 0 0 0 0 0 0 0 0 0 0 0 0 0 -0 0 0 0 0 0 0 0 0 0 0 0 0 0 0 0 0 0 0 0 0 0 0 0 0 0 0 0 0 0 0 0 0
0 0 0 0 0 0 0 0 0 0 0 0 0 0 0 0 -0 0 0 0 0 0 0 0 0 0 0 0 0 0 0 0 0 0 0 0 0 0 0 0 0 0 0 0 0 0 0 0 0
0 0 0 0 0 0 0 0 0 0 0 0 0 0 0 -0 -0 -0 0 0 0 0 0 0 0 0 0 0 0 0 0 0 0 0 0 0 0 0 0 0 0 0 0 0 0 0 0 0 0
0 0 0 0 0 0 0 0 0 0 0 0 0 0 0 0 0 0 -0 -0 0 0 0 0 0 0 0 0 0 0 0 0 0 0 0 0 0 0 0 0 0 0 0 0 0 0 0 0 0
0 0 0 0 0 0 0 0 0 0 0 0 -0 -0 0 0 0 0 0 0 -0 0 0 0 0 0 0 0 0 0 0 0 0 0 0 0 0 0 0 0 0 0 0 0 0 0 0 0 0
0 0 0 0 0 0 0 0 0 0 0 0 0 -0 -0 -0 -0 -0 -0 -0 -0 -0 -0 -0 0 0 0 0 0 0 0 0 0 0 0 0 0 0 0 0 0 0 0 0 0 -0 0 0 0
0 0 0 0 0 0 0 0 0 0 0 0 0 -0 -0 -0 -0 -0 0 0 0 -0 -0 -0 -0 0 -0 -0 -0 -0 -0 -0 -0 -0 -0 -0 -0 -0 -0 -0 -0 -0 0 0 0 0 0 0 0
0 0 0 0 0 0 0 0 0 0 0 0 0 0 -0 -0 -0 -0 0 0 0 0 0 -0 -0 -0 0 -0 -0 -0 -0 -0 -0 -0 -0 -0 -0 -0 -0 0 0 0 0 0 0 0 0 0 0
Wind_Speed_500mb
16 7 3 4 6 6 8 15 16 16 2 14 12 7 5 9 5 7 14 15 13 28 40 48 45 39 37 38 37 33 30 27 28 30 22 22 14 10 13 15 18 18 25 26 25 23 23 21 20
13 8 5 1 7 2 11 18 24 11 10 22 13 2 11 1 7 18 33 23 19 24 43 51 47 40 36 35 36 33 31 29 28 27 19 15 12 10 13 16 18 22 24 24 23 21 19 17 16
17 13 6 8 7 12 11 8 11 6 11 11 3 4 9 8 7 15 15 27 32 29 44 51 49 42 35 34 37 35 31 30 31 23 21 14 9 10 16 18 22 24 24 23 21 18 16 14 13
16 9 8 5 16 14 17 23 14 22 6 5 5 8 6 10 9 6 14 32 39 35 46 52 49 42 36 35 40 38 34 35 35 25 14 9 7 12 19 21 22 20 20 20 17 14 12 11 11
11 5 1 7 14 14 19 45 47 10 6 4 4 7 3 4 5 6 15 31 37 40 46 54 50 43 37 40 44 39 37 39 34 23 15 13 11 14 20 21 22 20 16 16 14 11 10 9 9
4 3 3 10 11 17 16 43 41 22 14 6 8 16 12 12 9 4 25 34 35 36 43 57 53 44 40 46 46 43 39 39 28 22 19 17 16 19 25 21 21 17 14 13 10 8 7 6 6
5 6 7 8 9 12 8 44 29 21 21 9 12 5 13 3 6 2 31 46 38 36 36 56 55 47 44 48 47 47 42 32 28 26 22 21 22 24 23 23 20 16 14 12 9 6 4 5 5
4 6 6 6 9 9 25 34 25 47 12 28 18 8 9 4 13 1 32 45 42 42 41 47 57 53 51 51 48 46 42 37 32 28 24 23 27 28 27 24 21 18 14 11 8 6 5 4 3
5 7 4 10 12 14 30 22 30 43 32 32 41 31 18 8 8 8 30 33 40 46 48 40 56 56 54 52 51 46 42 39 35 31 26 26 24 23 23 21 20 17 13 11 10 8 6 4 5
6 4 2 5 7 10 30 28 39 31 53 28 33 12 24 27 14 11 28 38 39 43 44 37 50 56 53 54 53 50 45 41 37 32 28 28 25 22 21 21 20 18 15 13 11 10 8 9 10
11 5 11 8 28 30 26 31 32 29 15 23 50 70 62 44 36 21 18 37 45 45 42 46 50 59 55 55 55 53 49 42 38 32 27 26 26 25 20 21 21 20 18 16 15 13 12 13 13
5 10 25 23 35 30 16 30 22 33 35 47 58 62 71 63 48 41 31 24 51 54 52 51 55 56 56 53 54 53 51 44 40 34 28 32 29 27 25 20 20 20 19 19 17 15 13 14 11
6 15 32 37 39 34 31 21 17 38 43 41 46 46 61 51 50 50 48 32 35 59 57 51 55 58 59 56 49 50 52 49 40 39 32 36 33 35 30 25 27 23 19 19 16 15 13 12 14
12 23 38 15 23 26 20 14 11 33 48 49 50 45 43 51 47 49 55 41 31 49 62 53 60 70 63 60 51 45 46 46 44 41 35 35 38 39 33 29 26 24 20 18 14 15 15 13 15
10 6 16 9 16 10 36 12 7 38 50 48 50 48 51 49 42 30 22 35 39 44 65 64 65 65 65 64 53 45 45 44 43 37 33 33 35 39 36 31 29 25 24 22 20 19 19 20 20
4 6 12 15 22 10 12 11 14 50 42 49 55 61 61 62 57 45 42 31 34 43 60 75 72 71 70 65 57 51 46 49 45 43 39 36 33 32 31 30 29 27 24 23 22 23 22 22 22
14 8 14 16 15 13 11 14 25 39 42 42 57 70 72 76 61 50 45 37 38 40 50 68 79 77 71 59 62 55 51 47 48 38 37 36 32 35 37 32 29 26 25 23 24 28 25 27 28
9 8 10 12 12 12 13 17 21 40 40 45 51 54 61 59 55 57 50 44 29 32 49 65 73 79 69 62 59 55 57 51 41 38 37 34 33 32 33 32 29 28 25 28 32 31 28 30 24
12 9 14 11 8 6 9 10 22 32 37 43 44 46 54 54 48 45 42 38 38 35 42 53 78 68 66 61 59 68 70 63 51 42 37 34 31 29 28 32 33 33 35 30 34 34 35 33 27
8 3 9 11 6 4 13 7 13 25 25 26 35 48 60 57 41 35 26 26 20 35 42 53 70 79 75 70 62 63 66 67 58 51 45 41 39 37 33 29 29 32 34 35 35 39 39 36 31
6 6 5 13 8 5 14 3 16 17 21 32 36 41 54 59 39 40 39 40 20 13 13 21 79 70 68 69 56 52 49 44 55 57 53 49 43 45 40 36 34 34 35 40 41 41 42 45 46
8 13 12 10 5 4 7 9 7 19 20 30 36 33 42 53 50 51 51 51 52 38 31 12 39 68 66 62 58 51 50 57 52 53 52 46 47 45 42 41 41 42 39 39 39 41 43 46 45
15 15 11 4 1 5 5 3 10 17 23 32 33 35 30 37 44 50 54 54 62 59 53 47 47 49 60 52 55 49 41 41 40 49 47 51 41 34 33 33 33 32 37 36 35 28 10 2 3
13 13 6 7 3 1 10 6 10 17 19 23 29 39 44 43 48 50 49 49 51 59 65 51 65 63 49 45 45 38 29 35 34 37 38 39 37 36 36 31 30 25 18 22 27 18 22 18 13
13 9 6 9 7 6 1 11 9 9 9 7 19 30 43 40 47 56 65 58 53 50 47 56 76 76 55 57 54 48 51 47 40 34 40 43 42 32 27 18 17 14 11 10 5 7 8 10 12
7 2 6 7 2 7 7 2 8 6 7 1 19 25 38 42 44 45 43 49 59 57 44 46 51 58 56 61 60 53 51 45 50 38 37 34 35 29 30 25 24 19 17 11 15 12 17 12 15
7 6 3 1 4 3 3 2 6 6 6 20 21 31 35 37 44 46 43 35 35 28 35 58 62 60 53 51 48 45 43 49 47 40 45 41 32 30 32 24 16 20 20 17 12 11 12 11 16
5 5 3 5 3 6 4 4 6 7 4 10 17 22 28 34 37 35 34 33 31 26 26 34 41 37 50 49 50 46 39 40 43 39 40 35 15 29 18 16 14 12 12 11 12 13 13 13 14
8 4 3 4 7 3 4 7 9 11 11 10 10 17 20 25 29 34 37 36 39 42 45 40 32 30 32 29 27 23 24 28 26 25 23 17 14 11 11 11 10 9 11 11 11 11 11 12 11
2 5 1 6 5 4 2 8 8 13 19 19 10 15 16 19 22 27 30 33 37 42 45 44 43 40 32 22 17 19 19 21 21 20 19 19 17 17 18 17 13 12 11 12 12 12 13 12 14
Wind_Direction_500mb
223 220 269 44 46 74 257 264 247 297 293 120 97 65 219 258 205 217 133 178 213 187 181 177 173 171 169 168 167 164 160 161 160 161 164 160 157 156 155 151 150 147 132 128 122 119 113 110 108
200 171 149 114 121 211 270 241 267 266 108 85 81 307 316 230 60 150 147 214 211 191 183 177 173 173 171 169 169 167 165 167 163 163 159 159 156 152 155 144 149 141 140 135 129 124 120 116 111
159 159 154 152 179 200 239 235 311 16 79 108 40 352 298 142 99 157 167 207 205 198 185 179 175 174 175 171 172 170 167 172 167 173 165 171 165 156 156 147 135 143 140 138 131 128 123 117 110
133 147 243 164 222 245 231 287 340 330 20 114 115 312 58 98 174 234 174 198 204 191 185 181 179 176 177 177 175 171 170 171 171 182 187 208 200 171 164 164 155 147 146 134 134 131 125 119 114
138 184 225 238 250 279 267 267 280 232 221 89 159 259 73 291 280 202 181 194 210 187 182 181 182 180 179 175 171 174 178 176 177 182 210 224 217 179 157 160 157 153 150 141 143 138 130 121 114
172 206 94 236 252 261 285 302 307 313 218 180 39 358 333 237 246 198 180 193 210 205 182 183 181 183 179 173 171 176 181 180 188 201 221 224 212 183 164 165 166 165 156 156 154 147 132 118 111
126 91 232 271 274 290 335 355 21 338 346 1 39 72 30 326 276 177 175 189 210 213 199 182 181 181 180 176 177 178 181 193 204 214 220 221 199 172 175 173 178 181 180 177 176 166 144 148 134
333 97 298 271 242 265 357 351 0 16 330 347 358 35 328 37 291 239 173 188 208 209 216 197 185 182 182 181 183 184 192 198 208 216 212 214 192 181 182 186 189 190 195 195 197 192 189 174 145
21 53 284 348 6 313 353 3 347 338 356 347 348 7 351 305 265 177 174 202 207 206 209 205 194 187 185 186 186 192 198 204 209 211 210 204 201 198 199 195 193 196 203 211 212 209 205 197 193
68 121 68 341 24 339 339 360 340 348 338 325 336 25 7 348 335 228 187 210 221 213 205 205 207 195 190 192 194 196 201 205 211 209 210 204 201 198 211 209 205 208 211 217 222 220 214 215 210
351 201 344 357 7 357 342 335 335 340 315 310 316 299 306 315 313 307 243 224 231 236 226 232 207 203 197 197 198 201 201 206 209 214 211 201 195 200 203 203 207 212 218 223 225 222 221 223 223
358 332 6 332 332 328 304 300 301 284 279 302 299 293 298 299 300 301 308 261 229 235 234 230 206 207 208 205 206 209 207 208 212 216 214 197 190 205 217 221 224 224 228 227 225 229 229 238 239
21 339 325 317 317 306 291 277 271 292 328 331 313 284 295 302 296 286 291 290 242 230 230 229 212 205 208 207 209 216 218 210 213 225 217 198 198 205 226 237 225 224 223 224 228 238 249 248 243
311 313 294 315 316 334 355 310 8 356 350 352 352 356 310 311 304 295 288 270 254 237 222 225 215 205 203 207 208 210 215 214 220 224 223 210 207 215 224 230 231 234 230 228 235 249 249 252 249
285 315 330 117 1 17 0 318 60 357 2 3 3 351 332 332 325 320 279 257 267 250 231 217 210 212 203 204 205 213 211 217 216 218 225 226 217 215 223 225 227 229 228 227 232 243 246 255 262
296 31 3 325 4 10 43 279 339 352 8 1 349 343 336 326 322 312 314 284 262 248 238 219 211 202 201 205 208 211 203 217 212 224 237 227 223 219 225 232 230 227 225 221 231 236 241 246 246
24 332 334 328 48 8 57 311 346 17 9 360 4 349 337 331 326 313 304 289 263 257 243 216 211 204 203 210 213 213 215 208 222 224 233 231 224 221 228 234 234 228 221 224 248 248 248 251 255
333 339 315 303 335 14 352 2 15 7 5 359 6 343 332 334 333 319 305 289 267 255 246 222 198 208 209 208 207 212 204 206 205 219 224 231 231 232 233 234 232 224 220 235 241 252 251 259 264
217 285 299 275 299 327 333 354 349 1 2 9 354 343 335 341 332 318 317 300 286 264 250 239 208 207 207 210 205 201 202 206 205 213 220 225 238 244 245 245 241 234 232 237 243 251 256 252 255
257 250 285 299 337 329 345 13 9 4 6 16 360 347 342 349 358 6 359 348 322 292 246 206 196 204 209 216 210 207 203 208 213 214 228 226 230 240 243 254 253 247 242 242 247 253 255 252 259
272 179 247 236 311 92 328 156 5 358 350 351 353 354 358 345 14 33 42 38 11 355 187 199 188 199 201 209 209 206 205 208 220 222 222 225 233 239 236 248 245 247 236 243 251 257 255 261 261
299 188 190 309 359 316 67 309 1 352 345 348 352 349 344 3 24 37 42 52 48 46 67 55 189 192 201 205 205 205 204 204 214 217 222 230 233 236 232 231 241 246 248 250 255 258 259 265 277
248 306 282 203 346 266 304 356 309 6 350 342 355 6 12 20 19 28 44 55 59 55 62 49 98 158 194 197 194 196 204 218 220 223 227 234 222 226 233 235 235 246 250 250 256 256 190 35 88
276 300 281 143 201 49 261 119 319 4 333 343 3 20 20 36 38 41 51 54 52 62 60 56 63 81 95 144 162 185 191 189 207 213 213 214 215 228 227 229 237 243 211 212 238 233 249 271 291
20 26 351 5 26 250 50 63 226 274 301 359 16 30 28 35 47 44 54 52 55 56 53 56 65 66 72 82 95 89 90 93 117 137 128 111 136 122 119 134 142 172 115 125 101 4 1 23 22
295 90 151 188 321 270 16 354 277 242 278 212 31 38 39 32 33 38 38 45 46 51 57 64 65 65 60 68 71 78 80 75 81 84 99 80 80 87 92 75 75 75 60 63 66 41 42 34 20
330 58 227 109 30 43 197 347 313 155 87 60 42 28 45 42 45 44 40 37 42 31 43 63 70 73 71 66 71 76 72 73 72 66 75 72 74 78 82 78 55 61 57 54 53 357 310 300 289
249 247 57 5 44 301 287 179 227 184 102 54 56 39 33 47 51 54 58 64 57 49 46 61 62 59 67 70 72 73 78 77 74 71 71 67 52 63 59 49 29 348 313 313 315 308 299 277 272
335 346 339 154 140 259 303 250 209 168 157 125 84 72 61 50 51 51 50 49 51 52 54 57 58 59 59 58 58 54 56 69 68 61 60 62 43 45 35 32 10 344 331 329 320 307 298 294 284
276 282 268 120 293 249 211 268 153 151 148 140 117 91 73 54 54 58 57 57 59 60 58 58 60 66 65 68 79 83 77 76 75 76 72 63 54 52 50 49 38 28 9 356 341 329 322 311 297
Wind_Speed_850mb
16 7 3 4 6 6 8 15 16 16 2 14 12 7 5 9 5 7 14 15 13 28 40 48 45 39 37 38 37 33 30 27 28 30 22 22 14 10 13 15 18 18 25 26 25 23 23 21 20
13 8 5 1 7 2 11 18 24 11 10 22 13 2 11 1 7 18 33 23 19 24 43 51 47 40 36 35 36 33 31 29 28 27 19 15 12 10 13 16 18 22 24 24 23 21 19 17 16
17 13 6 8 7 12 11 8 11 6 11 11 3 4 9 8 7 15 15 27 32 29 44 51 49 42 35 34 37 35 31 30 31 23 21 14 9 10 16 18 22 24 24 23 21 18 16 14 13
16 9 8 5 16 14 17 23 14 22 6 5 5 8 6 10 9 6 14 32 39 35 46 52 49 42 36 35 40 38 34 35 35 25 14 9 7 12 19 21 22 20 20 20 17 14 12 11 11
11 5 1 7 14 14 19 45 47 10 6 4 4 7 3 4 5 6 15 31 37 40 46 54 50 43 37 40 44 39 37 39 34 23 15 13 11 14 20 21 22 20 16 16 14 11 10 9 9
4 3 3 10 11 17 16 43 41 22 14 6 8 16 12 12 9 4 25 34 35 36 43 57 53 44 40 46 46 43 39 39 28 22 19 17 16 19 25 21 21 17 14 13 10 8 7 6 6
5 6 7 8 9 12 8 44 29 21 21 9 12 5 13 3 6 2 31 46 38 36 36 56 55 47 44 48 47 47 42 32 28 26 22 21 22 24 23 23 20 16 14 12 9 6 4 5 5
4 6 6 6 9 9 25 34 25 47 12 28 18 8 9 4 13 1 32 45 42 42 41 47 57 53 51 51 48 46 42 37 32 28 24 23 27 28 27 24 21 18 14 11 8 6 5 4 3
5 7 4 10 12 14 30 22 30 43 32 32 41 31 18 8 8 8 30 33 40 46 48 40 56 56 54 52 51 46 42 39 35 31 26 26 24 23 23 21 20 17 13 11 10 8 6 4 5
6 4 2 5 7 10 30 28 39 31 53 28 33 12 24 27 14 11 28 38 39 43 44 37 50 56 53 54 53 50 45 41 37 32 28 28 25 22 21 21 20 18 15 13 11 10 8 9 10
11 5 11 8 28 30 26 31 32 29 15 23 50 70 62 44 36 21 18 37 45 45 42 46 50 59 55 55 55 53 49 42 38 32 27 26 26 25 20 21 21 20 18 16 15 13 12 13 13
5 10 25 23 35 30 16 30 22 33 35 47 58 62 71 63 48 41 31 24 51 54 52 51 55 56 56 53 54 53 51 44 40 34 28 32 29 27 25 20 20 20 19 19 17 15 13 14 11
6 15 32 37 39 34 31 21 17 38 43 41 46 46 61 51 50 50 48 32 35 59 57 51 55 58 59 56 49 50 52 49 40 39 32 36 33 35 30 25 27 23 19 19 16 15 13 12 14
12 23 38 15 23 26 20 14 11 33 48 49 50 45 43 51 47 49 55 41 31 49 62 53 60 70 63 60 51 45 46 46 44 41 35 35 38 39 33 29 26 24 20 18 14 15 15 13 15
10 6 16 9 16 10 36 12 7 38 50 48 50 48 51 49 42 30 22 35 39 44 65 64 65 65 65 64 53 45 45 44 43 37 33 33 35 39 36 31 29 25 24 22 20 19 19 20 20
4 6 12 15 22 10 12 11 14 50 42 49 55 61 61 62 57 45 42 31 34 43 60 75 72 71 70 65 57 51 46 49 45 43 39 36 33 32 31 30 29 27 24 23 22 23 22 22 22
14 8 14 16 15 13 11 14 25 39 42 42 57 70 72 76 61 50 45 37 38 40 50 68 79 77 71 59 62 55 51 47 48 38 37 36 32 35 37 32 29 26 25 23 24 28 25 27 28
9 8 10 12 12 12 13 17 21 40 40 45 51 54 61 59 55 57 50 44 29 32 49 65 73 79 69 62 59 55 57 51 41 38 37 34 33 32 33 32 29 28 25 28 32 31 28 30 24
12 9 14 11 8 6 9 10 22 32 37 43 44 46 54 54 48 45 42 38 38 35 42 53 78 68 66 61 59 68 70 63 51 42 37 34 31 29 28 32 33 33 35 30 34 34 35 33 27
8 3 9 11 6 4 13 7 13 25 25 26 35 48 60 57 41 35 26 26 20 35 42 53 70 79 75 70 62 63 66 67 58 51 45 41 39 37 33 29 29 32 34 35 35 39 39 36 31
6 6 5 13 8 5 14 3 16 17 21 32 36 41 54 59 39 40 39 40 20 13 13 21 79 70 68 69 56 52 49 44 55 57 53 49 43 45 40 36 34 34 35 40 41 41 42 45 46
8 13 12 10 5 4 7 9 7 19 20 30 36 33 42 53 50 51 51 51 52 38 31 12 39 68 66 62 58 51 50 57 52 53 52 46 47 45 42 41 41 42 39 39 39 41 43 46 45
15 15 11 4 1 5 5 3 10 17 23 32 33 35 30 37 44 50 54 54 62 59 53 47 47 49 60 52 55 49 41 41 40 49 47 51 41 34 33 33 33 32 37 36 35 28 10 2 3
13 13 6 7 3 1 10 6 10 17 19 23 29 39 44 43 48 50 49 49 51 59 65 51 65 63 49 45 45 38 29 35 34 37 38 39 37 36 36 31 30 25 18 22 27 18 22 18 13
13 9 6 9 7 6 1 11 9 9 9 7 19 30 43 40 47 56 65 58 53 50 47 56 76 76 55 57 54 48 51 47 40 34 40 43 42 32 27 18 17 14 11 10 5 7 8 10 12
7 2 6 7 2 7 7 2 8 6 7 1 19 25 38 42 44 45 43 49 59 57 44 46 51 58 56 61 60 53 51 45 50 38 37 34 35 29 30 25 24 19 17 11 15 12 17 12 15
7 6 3 1 4 3 3 2 6 6 6 20 21 31 35 37 44 46 43 35 35 28 35 58 62 60 53 51 48 45 43 49 47 40 45 41 32 30 32 24 16 20 20 17 12 11 12 11 16
5 5 3 5 3 6 4 4 6 7 4 10 17 22 28 34 37 35 34 33 31 26 26 34 41 37 50 49 50 46 39 40 43 39 40 35 15 29 18 16 14 12 12 11 12 13 13 13 14
8 4 3 4 7 3 4 7 9 11 11 10 10 17 20 25 29 34 37 36 39 42 45 40 32 30 32 29 27 23 24 28 26 25 23 17 14 11 11 11 10 9 11 11 11 11 11 12 11
2 5 1 6 5 4 2 8 8 13 19 19 10 15 16 19 22 27 30 33 37 42 45 44 43 40 32 22 17 19 19 21 21 20 19 19 17 17 18 17 13 12 11 12 12 12 13 12 14
Wind_Direction_850mb
223 220 269 44 46 74 257 264 247 297 293 120 97 65 219 258 205 217 133 178 213 187 181 177 173 171 169 168 167 164 160 161 160 161 164 160 157 156 155 151 150 147 132 128 122 119 113 110 108
200 171 149 114 121 211 270 241 267 266 108 85 81 307 316 230 60 150 147 214 211 191 183 177 173 173 171 169 169 167 165 167 163 163 159 159 156 152 155 144 149 141 140 135 129 124 120 116 111
159 159 154 152 179 200 239 235 311 16 79 108 40 352 298 142 99 157 167 207 205 198 185 179 175 174 175 171 172 170 167 172 167 173 165 171 165 156 156 147 135 143 140 138 131 128 123 117 110
133 147 243 164 222 245 231 287 340 330 20 114 115 312 58 98 174 234 174 198 204 191 185 181 179 176 177 177 175 171 170 171 171 182 187 208 200 171 164 164 155 147 146 134 134 131 125 119 114
138 184 225 238 250 279 267 267 280 232 221 89 159 259 73 291 280 202 181 194 210 187 182 181 182 180 179 175 171 174 178 176 177 182 210 224 217 179 157 160 157 153 150 141 143 138 130 121 114
172 206 94 236 252 261 285 302 307 313 218 180 39 358 333 237 246 198 180 193 210 205 182 183 181 183 179 173 171 176 181 180 188 201 221 224 212 183 164 165 166 165 156 156 154 147 132 118 111
126 91 232 271 274 290 335 355 21 338 346 1 39 72 30 326 276 177 175 189 210 213 199 182 181 181 180 176 177 178 181 193 204 214 220 221 199 172 175 173 178 181 180 177 176 166 144 148 134
333 97 298 271 242 265 357 351 0 16 330 347 358 35 328 37 291 239 173 188 208 209 216 197 185 182 182 181 183 184 192 198 208 216 212 214 192 181 182 186 189 190 195 195 197 192 189 174 145
21 53 284 348 6 313 353 3 347 338 356 347 348 7 351 305 265 177 174 202 207 206 209 205 194 187 185 186 186 192 198 204 209 211 210 204 201 198 199 195 193 196 203 211 212 209 205 197 193
68 121 68 341 24 339 339 360 340 348 338 325 336 25 7 348 335 228 187 210 221 213 205 205 207 195 190 192 194 196 201 205 211 209 210 204 201 198 211 209 205 208 211 217 222 220 214 215 210
351 201 344 357 7 357 342 335 335 340 315 310 316 299 306 315 313 307 243 224 231 236 226 232 207 203 197 197 198 201 201 206 209 214 211 201 195 200 203 203 207 212 218 223 225 222 221 223 223
358 332 6 332 332 328 304 300 301 284 279 302 299 293 298 299 300 301 308 261 229 235 234 230 206 207 208 205 206 209 207 208 212 216 214 197 190 205 217 221 224 224 228 227 225 229 229 238 239
21 339 325 317 317 306 291 277 271 292 328 331 313 284 295 302 296 286 291 290 242 230 230 229 212 205 208 207 209 216 218 210 213 225 217 198 198 205 226 237 225 224 223 224 228 238 249 248 243
311 313 294 315 316 334 355 310 8 356 350 352 352 356 310 311 304 295 288 270 254 237 222 225 215 205 203 207 208 210 215 214 220 224 223 210 207 215 224 230 231 234 230 228 235 249 249 252 249
285 315 330 117 1 17 0 318 60 357 2 3 3 351 332 332 325 320 279 257 267 250 231 217 210 212 203 204 205 213 211 217 216 218 225 226 217 215 223 225 227 229 228 227 232 243 246 255 262
296 31 3 325 4 10 43 279 339 352 8 1 349 343 336 326 322 312 314 284 262 248 238 219 211 202 201 205 208 211 203 217 212 224 237 227 223 219 225 232 230 227 225 221 231 236 241 246 246
24 332 334 328 48 8 57 311 346 17 9 360 4 349 337 331 326 313 304 289 263 257 243 216 211 204 203 210 213 213 215 208 222 224 233 231 224 221 228 234 234 228 221 224 248 248 248 251 255
333 339 315 303 335 14 352 2 15 7 5 359 6 343 332 334 333 319 305 289 267 255 246 222 198 208 209 208 207 212 204 206 205 219 224 231 231 232 233 234 232 224 220 235 241 252 251 259 264
217 285 299 275 299 327 333 354 349 1 2 9 354 343 335 341 332 318 317 300 286 264 250 239 208 207 207 210 205 201 202 206 205 213 220 225 238 244 245 245 241 234 232 237 243 251 256 252 255
257 250 285 299 337 329 345 13 9 4 6 16 360 347 342 349 358 6 359 348 322 292 246 206 196 204 209 216 210 207 203 208 213 214 228 226 230 240 243 254 253 247 242 242 247 253 255 252 259
272 179 247 236 311 92 328 156 5 358 350 351 353 354 358 345 14 33 42 38 11 355 187 199 188 199 201 209 209 206 205 208 220 222 222 225 233 239 236 248 245 247 236 243 251 257 255 261 261
299 188 190 309 359 316 67 309 1 352 345 348 352 349 344 3 24 37 42 52 48 46 67 55 189 192 201 205 205 205 204 204 214 217 222 230 233 236 232 231 241 246 248 250 255 258 259 265 277
248 306 282 203 346 266 304 356 309 6 350 342 355 6 12 20 19 28 44 55 59 55 62 49 98 158 194 197 194 196 204 218 220 223 227 234 222 226 233 235 235 246 250 250 256 256 190 35 88
276 300 281 143 201 49 261 119 319 4 333 343 3 20 20 36 38 41 51 54 52 62 60 56 63 81 95 144 162 185 191 189 207 213 213 214 215 228 227 229 237 243 211 212 238 233 249 271 291
20 26 351 5 26 250 50 63 226 274 301 359 16 30 28 35 47 44 54 52 55 56 53 56 65 66 72 82 95 89 90 93 117 137 128 111 136 122 119 134 142 172 115 125 101 4 1 23 22
295 90 151 188 321 270 16 354 277 242 278 212 31 38 39 32 33 38 38 45 46 51 57 64 65 65 60 68 71 78 80 75 81 84 99 80 80 87 92 75 75 75 60 63 66 41 42 34 20
330 58 227 109 30 43 197 347 313 155 87 60 42 28 45 42 45 44 40 37 42 31 43 63 70 73 71 66 71 76 72 73 72 66 75 72 74 78 82 78 55 61 57 54 53 357 310 300 289
249 247 57 5 44 301 287 179 227 184 102 54 56 39 33 47 51 54 58 64 57 49 46 61 62 59 67 70 72 73 78 77 74 71 71 67 52 63 59 49 29 348 313 313 315 308 299 277 272
335 346 339 154 140 259 303 250 209 168 157 125 84 72 61 50 51 51 50 49 51 52 54 57 58 59 59 58 58 54 56 69 68 61 60 62 43 45 35 32 10 344 331 329 320 307 298 294 284
276 282 268 120 293 249 211 268 153 151 148 140 117 91 73 54 54 58 57 57 59 60 58 58 60 66 65 68 79 83 77 76 75 76 72 63 54 52 50 49 38 28 9 356 341 329 322 311 297